Presure
135 134 142 132 349 150 133 163 205 246 176 238 262 249 240 233 232 228 232 229 292 267 227 200 218 210 201 174 176 179 170 167 159 170 171 160 163 179 162 138 174 145 153 151 93
167 174 136 192 133 141 371 142 337 239 214 264 261 256 254 236 234 141 232 232 226 269 260 232 207 214 204 199 186 182 176 169 177 168 175 162 169 152 169 184 169 172 176 163 153
137 167 111 232 132 136 382 176 274 312 157 304 177 278 254 248 238 229 229 232 226 225 258 249 242 216 208 204 194 190 183 180 162 176 175 166 173 165 121 154 183 180 155 148 165
219 206 114 145 125 262 368 357 355 327 321 311 238 255 266 257 239 247 220 229 227 236 222 240 271 254 197 212 197 196 192 185 174 173 167 173 165 170 165 173 173 131 144 176 160
161 229 117 134 183 375 144 355 340 347 339 321 301 286 256 260 248 238 243 232 158 224 213 220 232 274 267 226 222 195 201 188 181 179 181 166 169 164 158 167 159 168 174 133 191
143 144 116 104 172 346 365 348 350 334 323 350 339 289 276 256 263 123 230 238 228 213 217 222 218 229 269 258 234 220 207 201 190 183 180 178 165 166 168 162 165 165 168 167 152
170 152 112 134 347 361 352 357 342 346 292 333 335 319 346 298 251 259 244 233 231 228 216 218 234 217 223 249 272 237 209 212 206 195 187 186 178 171 165 167 162 161 169 169 169
123 141 213 125 283 331 135 358 344 334 325 325 321 325 332 324 289 252 256 227 248 223 221 211 218 231 213 220 237 274 238 219 217 210 197 189 186 185 179 168 178 170 162 165 132
119 228 156 228 306 312 310 341 329 338 311 326 325 314 335 316 315 267 260 244 238 238 244 218 210 220 229 210 212 225 249 274 227 213 216 215 189 189 190 186 175 179 178 170 170
145 136 245 160 339 144 338 334 323 310 302 344 335 315 339 309 309 321 253 260 240 227 227 231 215 206 221 224 207 202 209 226 267 267 218 212 207 218 214 195 194 194 186 180 168
263 125 283 334 144 349 335 313 308 304 299 286 307 326 314 307 308 318 321 251 254 237 234 226 233 214 204 195 217 209 204 204 213 240 278 314 197 206 205 209 207 197 190 185 179
173 132 315 323 324 347 326 309 296 292 139 279 282 288 258 302 289 303 312 292 274 244 231 231 225 224 208 208 209 215 215 203 206 204 219 299 294 256 217 205 198 204 205 204 201
267 239 343 163 263 339 319 307 301 438 306 441 201 127 260 295 293 289 300 283 277 261 244 229 224 213 215 212 214 213 210 210 204 203 198 215 284 254 242 233 223 217 195 193 195
143 300 228 366 346 331 315 463 492 473 477 426 537 335 294 266 272 283 272 289 277 264 264 243 232 221 220 221 209 221 210 214 206 206 202 200 222 271 244 234 226 213 211 209 202
349 337 359 349 336 328 324 482 470 474 455 447 474 82 367 293 244 282 275 288 194 258 255 248 239 220 224 207 212 202 214 210 211 206 212 199 197 277 254 239 228 223 215 212 209
331 300 329 337 337 318 475 476 463 459 456 424 416 415 427 356 284 247 279 278 289 266 262 248 245 236 216 220 212 213 212 214 211 214 205 202 195 195 264 237 229 226 227 227 226
332 364 350 141 321 396 481 448 444 451 445 401 413 421 396 426 307 273 256 275 277 277 264 252 243 251 232 225 216 213 210 211 201 216 216 203 202 184 203 253 229 221 220 219 218
322 329 336 328 321 476 451 442 443 432 418 387 367 375 392 388 428 292 258 256 276 287 254 253 249 245 260 224 223 210 210 206 211 188 210 207 201 193 189 242 231 218 213 213 215
343 347 333 325 347 463 445 449 434 425 405 373 370 372 358 373 376 421 282 253 256 270 279 251 238 241 234 235 220 210 203 207 207 212 213 213 205 192 187 234 232 217 214 210 212
347 303 325 322 468 439 439 433 432 420 388 367 373 362 364 357 348 385 347 268 251 268 274 266 247 234 237 232 230 227 208 209 210 199 199 214 209 191 193 187 235 220 219 211 207
343 331 320 314 450 427 438 430 436 417 383 389 384 360 355 368 346 369 389 293 253 253 260 274 263 251 240 237 239 226 223 219 218 225 217 195 203 198 192 189 233 225 222 213 206
335 324 320 309 460 442 440 430 439 396 380 367 374 360 355 361 355 350 369 387 287 254 253 256 264 256 245 238 236 236 245 232 222 210 217 213 202 202 194 192 190 234 221 214 210
163 317 312 302 450 440 430 416 430 400 392 368 351 363 357 354 351 345 362 363 381 270 254 252 250 260 251 234 239 234 236 229 211 224 221 216 202 198 195 192 189 219 222 216 208
327 313 308 297 458 434 409 405 419 399 372 363 345 341 341 344 343 343 342 350 362 357 256 256 252 252 262 243 233 228 226 88 230 236 211 225 214 210 196 195 191 190 224 216 209
317 307 304 429 429 396 386 396 410 413 372 357 341 334 352 341 337 332 334 343 363 357 337 259 253 249 240 260 253 242 234 231 229 219 225 228 217 214 197 194 193 189 221 214 215
310 303 297 447 413 397 382 383 394 388 378 389 343 337 334 324 324 332 337 327 342 364 349 354 251 252 251 242 245 264 258 237 231 230 226 235 213 213 205 194 193 193 190 214 214
306 296 291 408 405 396 379 384 380 376 402 402 382 343 347 323 326 328 334 330 328 336 354 369 363 254 250 252 247 247 243 181 225 227 218 221 217 198 212 199 196 193 192 207 214
Wind_Speed
60 70 74 52 57 63 47 56 45 40 45 46 59 59 59 59 57 58 62 63 63 80 88 83 91 96 96 84 87 91 85 84 83 85 83 78 77 77 73 70 78 70 75 71 41
73 67 65 58 62 66 49 54 52 42 43 56 53 63 64 64 62 47 60 65 67 66 82 93 89 98 98 98 96 94 91 89 94 89 89 83 81 72 76 79 79 77 80 79 76
79 66 37 69 52 63 46 54 44 50 57 58 49 62 68 68 67 66 63 63 70 72 66 85 95 97 96 98 97 97 95 98 89 94 88 83 85 76 67 73 80 78 73 68 79
77 74 42 81 57 66 48 48 45 47 52 58 51 64 69 72 70 70 69 69 68 68 74 68 78 97 92 99 99 98 102 99 98 95 89 90 83 86 77 78 76 75 74 81 79
83 69 46 72 66 47 71 48 46 48 50 55 63 69 70 72 74 74 74 72 58 72 73 78 73 72 93 100 105 97 105 102 101 98 96 87 89 84 81 81 81 79 81 74 77
70 80 47 36 75 55 46 48 50 48 44 44 52 58 75 71 78 41 77 77 77 76 75 76 79 75 69 92 99 104 104 107 105 101 99 97 89 86 89 83 85 82 82 80 76
95 86 47 62 62 49 47 48 48 49 48 46 47 56 54 75 81 80 84 82 81 81 79 77 72 78 76 69 82 97 101 105 107 106 103 102 97 95 91 90 86 81 84 83 81
59 88 82 63 95 62 69 47 48 49 52 53 54 53 47 59 85 80 84 83 84 85 83 81 75 73 79 76 70 69 95 99 102 108 108 104 100 104 99 92 97 90 79 81 75
60 87 93 90 87 54 54 47 45 50 46 56 59 59 51 55 68 86 85 89 87 88 85 84 81 76 74 79 82 74 66 71 97 99 102 103 104 105 101 103 95 94 93 87 84
93 73 101 94 66 76 53 52 50 46 44 60 59 59 52 54 65 73 89 91 93 88 89 86 85 79 74 75 79 81 79 74 65 77 99 97 98 97 98 102 100 99 96 95 84
121 71 112 81 81 57 56 57 55 53 52 45 49 60 61 60 64 69 80 92 96 92 90 88 88 80 78 80 80 86 85 84 79 68 66 57 92 93 92 89 93 97 97 95 94
102 72 106 91 66 61 62 61 61 63 15 60 55 52 50 64 65 68 76 82 92 96 94 91 82 85 86 85 83 79 80 83 82 76 70 54 62 81 89 90 90 89 89 90 91
125 109 90 86 71 66 69 66 68 46 25 53 47 23 59 68 70 72 77 81 83 94 98 89 90 90 90 86 82 79 81 82 82 78 79 67 57 72 76 83 86 86 90 88 88
80 117 89 73 72 76 73 41 26 36 38 24 33 76 74 70 64 75 78 84 81 86 92 96 94 92 90 87 84 79 82 81 82 82 79 73 62 60 69 74 78 80 81 84 87
98 99 82 79 81 79 76 33 31 25 34 21 17 22 79 77 81 79 82 81 53 80 93 90 94 92 91 86 86 85 80 82 82 80 72 73 68 54 60 65 70 74 78 78 78
109 102 94 86 84 84 28 25 20 20 22 19 24 28 28 74 81 86 84 84 86 91 94 97 95 99 92 94 89 89 84 82 83 79 73 70 69 67 54 62 67 67 65 65 62
97 82 82 78 87 56 18 19 19 18 14 18 12 14 36 22 92 80 86 87 84 93 90 94 95 94 98 96 93 89 86 82 79 76 65 70 64 73 60 60 65 64 63 63 62
106 96 88 87 87 15 15 18 16 13 14 22 29 26 15 28 23 89 89 89 89 89 93 93 96 92 95 95 94 91 88 83 81 72 72 72 63 64 71 59 64 65 64 63 61
91 84 87 88 74 13 17 14 7 9 20 29 29 31 31 18 28 29 91 89 87 87 98 97 95 96 94 104 96 95 85 88 81 75 72 68 66 67 79 58 63 66 65 64 62
84 86 87 87 16 13 14 9 12 20 26 30 29 29 29 33 42 25 71 91 90 91 95 101 100 94 100 97 101 99 98 90 84 74 72 72 70 71 76 75 60 65 64 64 62
81 83 86 84 10 22 13 9 15 26 33 32 28 29 23 23 39 23 29 100 94 93 93 98 101 99 98 99 98 99 98 93 88 83 76 72 72 72 78 77 61 64 63 64 62
81 82 83 81 12 14 11 9 20 27 29 26 29 30 30 26 30 37 25 27 99 95 94 94 98 98 99 101 100 97 96 100 93 80 75 75 75 73 77 77 74 64 64 64 63
73 82 81 79 15 9 7 11 26 31 32 27 25 28 26 27 28 30 30 32 32 97 97 97 95 100 100 96 96 93 90 87 82 87 81 78 76 77 79 80 77 64 67 66 64
77 80 80 78 6 3 6 7 21 28 19 26 26 24 24 26 27 29 36 35 37 54 101 102 96 96 98 94 95 96 93 19 86 85 79 80 80 81 81 81 80 74 71 68 66
77 79 78 19 3 9 9 7 4 32 23 30 27 26 27 24 21 29 35 34 31 43 68 102 96 96 95 99 99 95 100 96 89 81 78 82 80 82 81 82 80 77 69 68 67
77 78 79 1 7 7 13 15 6 10 19 37 32 34 28 32 32 31 33 39 36 30 52 62 96 98 97 97 94 98 98 98 90 83 81 80 80 85 86 85 84 78 74 70 71
76 78 79 23 12 10 14 13 9 10 13 31 42 38 37 36 35 34 33 38 40 39 33 37 58 98 95 97 95 92 85 55 91 89 77 75 80 83 84 86 87 83 77 72 73
Wind_Direction
341 345 333 336 319 335 329 319 308 270 310 260 243 243 241 239 234 233 230 226 228 225 221 226 225 224 223 226 228 227 227 229 231 232 230 230 230 232 236 238 235 234 235 234 240
328 324 341 341 339 333 286 329 265 282 289 242 245 239 239 239 234 241 231 229 226 228 224 222 224 223 225 224 225 226 227 229 228 230 230 232 231 230 234 234 235 236 237 236 237
340 327 329 349 336 331 289 320 288 264 317 239 293 233 238 236 236 234 229 229 227 226 226 225 224 224 226 226 227 228 226 226 229 233 233 234 236 236 246 239 236 236 235 242 238
330 325 331 331 331 323 290 284 271 266 255 243 256 239 233 234 236 232 233 228 227 229 227 226 229 226 228 227 227 228 227 227 228 229 230 233 233 238 236 240 241 238 234 239 240
322 337 331 338 331 296 326 287 280 274 263 252 242 237 237 232 234 235 231 227 236 227 228 227 226 230 227 227 228 228 228 229 229 230 229 232 231 233 231 236 232 238 241 240 240
330 331 330 320 333 315 286 290 283 278 280 260 250 248 235 235 232 242 236 230 227 229 228 230 228 227 229 227 228 229 229 229 229 231 231 230 232 233 234 234 236 235 238 239 238
330 332 331 333 321 298 297 280 279 277 282 265 257 245 244 232 236 228 231 232 232 226 226 227 231 229 228 228 230 228 229 231 231 231 232 233 231 232 234 234 236 236 238 239 241
332 333 330 330 341 318 321 282 276 271 268 263 257 250 239 236 231 233 226 233 229 232 227 229 227 229 229 227 230 230 230 231 232 233 233 234 234 234 233 235 236 237 238 240 242
330 336 324 324 331 307 304 291 283 269 268 262 259 254 243 234 235 232 229 228 231 228 224 232 229 227 227 229 230 229 232 232 232 233 235 236 234 236 236 236 237 237 239 241 242
328 330 336 324 318 321 298 292 287 284 275 259 256 255 255 237 238 232 231 227 230 231 230 229 233 230 226 228 231 231 229 231 230 231 232 233 235 238 239 238 240 240 240 241 243
341 329 338 321 322 304 298 302 293 290 286 272 259 250 246 244 234 235 226 229 227 230 231 230 225 231 228 229 227 229 230 230 232 233 233 231 236 236 236 238 241 241 241 242 243
330 332 332 325 313 304 305 304 299 291 284 275 261 249 247 240 237 234 229 223 224 229 230 229 230 229 229 227 227 228 229 233 233 231 235 230 228 233 237 238 238 239 241 242 245
337 333 324 320 316 310 311 307 299 286 267 264 260 258 239 238 233 232 229 224 221 224 228 227 225 228 229 228 226 225 229 231 232 232 231 232 225 229 232 235 238 240 241 243 244
329 334 326 320 318 317 317 298 286 286 280 281 248 240 240 230 232 231 230 225 222 221 223 225 223 228 227 229 231 223 227 229 230 232 230 230 232 225 230 232 234 237 239 240 242
325 327 325 324 322 322 319 286 280 269 274 274 262 269 229 231 225 226 228 225 225 219 222 225 223 227 226 230 230 231 224 227 229 230 229 230 229 226 226 229 232 234 236 238 240
328 328 330 325 325 325 294 283 274 265 258 247 246 238 232 226 222 226 225 224 219 218 216 221 223 220 225 226 228 229 228 225 228 229 228 229 227 231 224 226 229 231 233 235 235
327 328 328 321 327 323 293 284 273 262 244 230 225 242 233 236 223 218 224 226 222 218 217 219 224 220 222 223 228 228 231 233 230 228 225 229 227 232 231 225 229 228 230 231 232
329 330 330 329 330 302 287 275 266 230 202 217 238 228 227 232 220 220 220 223 221 218 218 218 219 224 221 224 223 229 230 231 230 228 228 226 224 227 228 228 226 227 228 230 231
329 331 331 330 331 303 282 266 246 214 200 219 227 232 226 223 227 208 218 219 222 219 217 220 219 219 225 220 223 225 228 232 229 227 227 225 222 223 230 229 225 227 226 229 230
331 330 331 332 329 298 291 254 205 186 198 221 225 219 222 220 221 207 215 215 218 220 218 217 221 220 219 226 222 221 226 229 229 223 224 227 222 223 231 227 226 227 226 227 229
331 331 332 334 303 309 296 255 208 187 199 203 205 208 212 209 224 212 209 217 215 219 220 218 219 219 219 221 225 223 226 228 231 227 222 223 227 222 229 229 230 225 225 226 228
332 332 333 335 310 299 282 262 196 209 208 213 197 207 212 197 208 214 196 207 216 216 219 220 219 218 221 220 222 225 221 223 222 226 225 222 225 223 228 231 227 225 224 225 226
329 331 334 337 323 319 289 267 197 208 199 206 217 197 199 197 198 208 187 201 210 214 218 220 219 218 220 220 222 226 227 222 224 222 224 221 222 223 225 229 229 229 225 226 227
332 332 335 337 358 359 328 297 213 214 206 206 212 211 204 199 200 196 197 204 203 206 215 219 217 220 218 222 220 220 226 210 224 218 221 220 221 221 223 227 228 227 228 227 227
332 334 336 337 9 327 313 311 273 225 205 204 213 215 195 192 206 203 207 204 206 200 212 217 217 219 219 219 222 218 221 224 222 218 218 215 216 220 223 227 229 229 229 228 227
332 336 337 34 311 291 302 288 276 257 221 198 207 207 197 203 201 200 201 211 209 221 214 214 218 220 219 220 220 222 220 223 227 224 217 213 213 218 220 225 228 228 229 229 229
333 335 338 331 309 303 296 294 289 239 256 209 191 199 191 206 205 200 199 210 214 216 213 217 216 219 221 221 220 220 219 216 223 226 222 218 216 222 220 223 228 228 227 228 229